Temperature
15 15 16 16 14 12 13 14 16 17 17 17 17 16 15 14 15 15 13 14 14 14 14 14 14 14 14 14 15 14 14 14 15 15 15 15 15 15 15 15 14 15 14 14 14 15 15 15 14
15 15 16 15 12 13 14 14 15 16 17 17 17 15 14 13 13 13 13 13 14 14 14 14 14 14 14 14 14 14 14 14 14 14 14 14 14 14 14 14 14 14 14 14 14 14 14 14 14
15 15 15 11 12 13 15 15 15 16 17 17 15 14 14 13 13 13 13 13 13 14 13 14 14 14 14 14 14 14 14 14 14 14 14 14 14 14 14 14 14 14 14 14 14 14 14 14 14
15 15 14 11 13 13 14 15 15 16 17 17 15 13 13 13 13 13 13 13 13 13 13 13 13 14 14 14 14 14 14 14 14 14 14 14 14 14 14 14 14 14 14 14 14 14 14 14 14
15 14 12 11 12 13 14 15 16 15 15 15 14 12 12 12 13 13 13 13 13 13 13 13 13 13 13 13 13 13 13 13 13 14 14 14 14 14 14 14 14 14 14 14 14 14 14 14 14
14 11 11 11 12 13 14 15 15 14 15 15 14 12 11 12 12 12 13 13 13 13 13 13 13 13 13 13 13 13 13 13 13 13 13 13 13 13 13 13 13 13 13 13 13 13 13 13 13
12 10 11 12 13 13 14 15 14 13 14 14 14 11 11 11 12 12 12 12 12 12 12 13 13 13 13 13 13 13 13 13 13 13 13 13 13 13 13 13 13 13 13 13 13 13 13 13 13
13 10 11 12 13 13 14 15 14 14 14 14 14 12 11 11 11 12 12 12 12 12 12 12 12 12 12 13 13 13 13 13 13 13 13 13 13 13 13 13 13 13 13 13 13 13 13 13 13
13 10 10 12 13 13 13 13 14 14 14 13 13 13 13 12 11 11 11 11 11 12 12 12 12 12 12 12 12 12 12 13 13 12 12 12 12 12 13 13 13 13 13 13 13 13 13 13 13
11 9 10 12 12 12 13 13 13 13 12 12 12 12 12 11 11 11 11 11 11 11 11 12 12 12 12 12 12 12 12 12 12 12 12 12 12 12 12 12 12 12 12 12 12 13 12 12 12
10 9 11 11 12 12 12 12 12 12 11 11 12 12 11 11 11 11 11 11 11 11 11 11 11 11 11 12 11 11 12 12 12 12 12 12 12 12 12 12 12 12 12 12 12 12 12 12 12
10 10 11 11 12 12 12 12 11 11 12 12 12 12 12 11 11 11 11 11 11 10 11 11 11 11 11 11 11 11 11 11 11 11 11 11 11 11 12 12 12 12 12 12 12 12 12 12 12
10 10 11 11 11 11 11 11 11 11 12 12 12 11 11 11 11 11 10 10 10 10 10 10 10 11 11 11 11 11 11 11 11 11 11 11 11 11 11 11 11 11 11 11 11 11 11 11 11
10 10 10 10 11 11 10 10 10 10 11 11 11 11 11 10 10 10 10 10 10 10 10 10 10 10 10 10 10 10 10 10 10 10 10 10 10 10 11 11 11 11 11 11 11 11 11 11 11
10 9 9 9 10 10 10 9 9 11 11 10 10 10 10 10 10 10 10 9 9 9 9 9 9 9 10 10 10 10 10 10 10 10 10 10 10 10 10 10 10 10 10 10 10 10 10 10 10
9 8 8 9 9 10 10 9 9 10 10 9 10 9 9 9 9 9 9 9 9 9 9 9 9 9 9 9 9 9 9 9 9 9 9 9 9 9 9 9 10 10 10 10 10 10 10 10 10
7 7 7 8 9 9 8 8 8 9 9 9 9 9 8 8 8 8 8 8 9 9 9 9 9 9 9 8 8 8 9 9 8 8 8 8 9 9 9 9 9 9 9 9 9 9 9 9 9
7 7 7 8 8 8 7 7 7 8 8 8 8 8 8 8 8 8 8 8 8 8 8 8 8 8 8 8 8 8 8 8 8 8 8 8 8 8 8 8 8 8 8 9 9 9 9 8 9
7 7 7 7 8 7 7 7 7 7 7 6 6 7 7 7 8 8 8 8 8 8 8 8 8 8 8 8 8 8 8 8 8 7 7 7 7 7 8 8 8 8 8 8 8 8 8 8 8
7 6 6 6 7 7 6 6 6 6 6 6 6 7 7 7 7 7 7 7 7 7 7 7 7 7 7 7 7 7 7 7 7 7 7 7 7 7 7 7 7 7 7 7 7 7 7 7 7
6 6 6 6 6 6 6 6 6 6 6 6 6 7 7 6 6 7 7 7 7 7 7 7 6 6 6 6 6 6 6 6 6 6 7 6 6 6 6 6 6 7 6 7 7 7 7 6 6
6 6 6 6 5 4 5 4 5 5 5 5 5 5 6 6 6 6 6 6 6 6 6 6 6 6 6 6 6 6 6 6 6 6 6 6 6 6 6 6 6 6 6 6 6 6 6 6 6
5 6 5 5 4 3 4 4 4 4 5 5 4 5 5 5 5 5 5 5 6 6 5 5 5 5 5 5 5 5 5 5 5 5 5 6 6 6 5 5 5 5 5 5 5 5 5 5 5
5 4 4 3 3 3 4 4 4 4 4 4 4 5 5 5 5 5 5 5 5 5 5 5 5 5 5 5 5 4 4 4 5 5 5 5 5 5 5 5 5 5 5 5 5 5 5 5 5
4 3 3 3 2 3 4 4 4 4 4 4 4 4 4 4 4 4 4 4 4 4 4 4 4 4 4 4 4 4 4 4 4 4 4 4 4 5 5 4 4 4 4 4 4 4 4 4 4
3 3 3 3 3 3 3 3 4 4 4 4 4 4 4 4 4 4 4 4 4 3 4 4 4 4 3 3 3 3 3 3 3 3 3 4 4 4 4 4 4 4 4 4 4 4 4 4 4
4 2 3 2 1 2 3 3 4 4 3 3 3 3 3 3 3 3 3 3 3 3 3 3 3 3 3 3 3 3 3 3 3 3 3 3 3 3 3 4 4 4 3 3 3 3 3 3 3
3 2 1 2 2 3 3 3 3 3 3 2 2 2 3 3 3 3 3 3 2 2 2 2 2 2 2 2 2 2 2 2 2 2 2 3 3 3 3 3 3 3 3 3 3 3 3 3 3
2 2 1 1 1 2 2 3 3 3 2 2 2 2 3 2 2 2 2 2 2 2 2 2 1 1 1 1 1 2 2 2 2 2 2 2 2 2 2 2 3 3 3 3 2 3 3 3 3
1 1 1 1 1 0 1 2 3 2 2 2 2 2 2 2 2 2 2 1 1 1 1 1 1 1 1 1 1 1 1 1 1 2 2 2 2 2 2 2 2 2 2 2 2 2 2 2 2
Wind_Speed
8 7 2 4 5 4 3 5 3 1 1 1 2 6 7 5 3 5 3 3 4 5 6 7 9 9 9 9 9 9 9 9 9 8 8 8 8 8 8 7 7 7 8 8 8 8 8 8 8
4 3 4 4 4 2 4 4 3 3 3 2 4 5 6 4 3 6 3 2 5 7 7 8 9 9 9 9 9 9 9 9 8 8 8 7 7 7 7 7 6 6 7 7 7 7 7 7 7
3 2 4 4 4 6 5 3 4 2 1 2 4 5 4 4 3 3 3 4 6 7 7 8 10 9 9 9 9 9 8 8 8 8 7 7 7 6 6 6 6 6 6 6 6 6 6 6 6
3 4 4 3 5 5 5 3 1 1 2 4 5 5 3 2 2 3 5 6 7 6 7 8 9 9 9 9 9 8 8 7 7 7 6 6 7 6 5 5 5 5 5 5 5 5 5 5 6
3 4 3 2 5 4 4 3 2 1 0 2 4 5 3 4 4 7 7 7 8 5 6 8 9 9 9 9 8 7 7 6 6 6 6 6 6 5 5 5 4 4 4 5 5 5 4 4 5
4 4 3 5 5 4 3 3 1 1 1 1 4 5 2 1 5 6 7 7 7 7 7 8 9 9 9 8 7 7 6 6 5 5 5 6 6 6 5 4 3 3 3 4 4 4 4 3 3
4 4 5 5 4 3 3 1 2 2 2 1 4 5 3 1 3 5 6 7 7 8 8 8 8 8 8 8 7 7 6 5 5 4 4 4 5 5 5 4 4 3 3 3 3 3 3 3 2
4 4 3 3 4 4 2 1 1 2 2 1 4 7 5 4 3 6 7 7 6 6 6 7 8 8 7 7 7 7 6 5 5 4 4 4 4 4 4 3 3 3 3 2 2 2 2 2 1
3 3 4 4 4 3 1 1 3 2 3 3 3 2 4 8 7 7 6 5 5 5 4 5 6 6 6 6 5 6 6 5 5 5 4 4 4 3 3 3 2 2 2 2 1 1 1 1 1
4 4 6 3 2 2 0 0 1 2 3 2 3 4 6 8 8 8 7 5 4 3 2 3 4 4 5 4 4 4 4 5 5 5 4 4 3 3 2 2 1 1 2 2 1 0 1 1 1
4 6 4 2 1 0 1 1 1 2 1 3 4 5 6 6 6 7 6 5 4 3 2 2 2 3 4 3 3 3 3 4 5 5 5 4 3 3 3 2 2 2 2 2 1 1 1 1 1
2 3 3 2 2 1 1 1 1 2 5 4 5 7 7 6 6 6 6 4 4 3 2 1 2 2 3 3 2 2 2 2 3 4 4 4 3 3 2 2 2 2 1 1 1 1 1 1 1
3 3 3 2 1 1 1 2 2 3 4 2 4 5 7 6 5 4 5 5 4 3 2 1 1 2 2 2 1 2 1 1 1 2 3 3 2 1 1 1 2 2 1 1 1 1 1 1 2
2 2 2 2 2 2 2 3 2 5 2 3 4 5 5 5 4 4 4 4 4 3 2 1 1 2 2 1 1 1 0 0 1 1 1 2 2 1 1 1 1 1 1 1 1 1 1 2 1
1 1 3 3 3 2 1 4 5 6 3 3 3 3 2 2 3 4 5 5 4 4 3 2 2 1 1 1 1 0 0 1 1 0 1 1 1 1 1 1 1 1 1 1 1 1 1 1 1
2 1 2 4 2 2 3 7 6 4 4 4 3 2 2 2 3 3 3 3 3 4 3 2 1 1 1 1 1 0 0 0 0 1 1 1 1 1 1 1 2 2 1 1 1 1 1 2 2
1 2 4 4 2 1 3 6 5 1 3 3 3 2 2 2 2 2 2 3 3 4 3 2 1 1 1 1 1 1 0 1 1 1 2 2 2 2 1 2 2 2 1 1 2 1 2 2 2
4 3 3 5 2 1 3 6 5 3 2 3 3 2 2 3 4 3 2 2 2 2 3 2 1 1 1 0 0 0 1 1 1 1 2 3 3 3 2 2 2 1 1 2 2 3 2 2 2
3 3 4 4 2 1 5 7 7 5 3 3 3 3 3 4 3 2 2 2 1 1 2 2 2 1 1 0 0 1 1 2 2 2 2 3 3 3 3 2 2 2 2 3 3 3 2 2 1
2 3 4 4 3 1 4 8 7 4 4 5 5 4 4 2 1 1 1 1 2 2 3 2 2 2 2 1 1 2 2 2 2 2 3 3 4 4 3 3 3 2 3 3 3 2 2 1 1
3 4 4 3 4 2 2 6 4 2 1 2 2 2 3 3 3 2 1 2 2 3 4 3 3 3 2 1 0 1 1 1 2 2 2 3 4 4 4 4 3 3 3 4 4 3 3 3 2
4 3 3 2 1 3 0 4 5 3 2 2 1 1 1 1 1 1 1 2 3 4 4 4 3 3 2 1 1 1 2 3 3 3 3 4 4 5 4 4 3 4 4 4 4 4 3 3 3
3 1 1 1 1 2 2 3 7 2 4 5 3 2 1 1 1 1 1 2 3 3 3 3 3 3 2 2 2 2 3 3 3 3 3 4 4 4 5 4 4 4 4 4 4 4 4 4 4
1 3 4 3 2 3 5 5 6 4 6 4 3 2 2 0 0 1 2 2 3 2 2 2 2 2 2 2 3 3 3 4 4 4 4 4 3 3 4 5 4 4 4 5 5 5 5 5 5
3 4 3 3 2 6 3 4 7 5 4 4 4 3 2 0 1 1 2 3 3 3 2 2 2 3 3 3 3 4 4 4 5 5 5 4 4 4 5 4 4 4 5 5 4 5 5 5 5
2 5 5 4 4 5 2 6 5 2 1 2 3 3 2 0 1 1 2 2 3 3 3 2 2 3 3 3 4 4 4 3 4 5 5 5 5 5 5 5 5 5 5 5 4 4 5 5 5
3 2 4 4 0 3 5 5 4 0 1 1 1 1 1 1 2 2 3 3 2 3 3 3 3 4 4 4 4 4 4 4 4 5 5 5 5 4 5 4 5 4 4 4 4 4 4 4 5
2 4 4 3 2 4 5 4 4 4 3 2 1 2 2 2 2 3 4 3 3 3 3 3 3 4 4 4 4 4 4 4 5 4 5 5 5 4 4 4 4 4 4 4 4 4 4 4 5
2 1 2 3 3 4 4 6 4 6 5 4 3 3 2 2 2 3 4 3 3 3 3 4 4 4 4 4 4 4 4 4 4 4 5 5 5 5 5 5 4 4 4 4 3 4 4 4 5
2 4 5 3 4 3 3 6 4 3 3 2 2 3 2 2 2 3 4 3 3 4 4 4 4 4 5 4 4 4 4 4 4 5 5 5 5 4 4 4 3 4 3 3 3 4 4 4 5
Wind_Direction
336 344 47 53 60 61 228 249 241 318 27 17 60 86 102 97 111 143 156 140 121 117 108 106 103 105 103 103 99 96 93 91 91 91 99 107 107 106 104 101 99 99 99 95 94 93 90 84 89
349 12 53 60 103 159 250 252 239 245 205 136 67 76 77 76 81 109 124 139 121 114 104 103 103 105 102 101 100 99 95 89 88 90 95 99 105 109 108 108 106 104 103 101 97 96 95 88 93
350 62 85 87 147 188 217 233 220 245 342 107 71 57 93 110 114 129 150 136 107 99 101 105 103 104 103 100 96 95 94 91 87 89 94 97 97 101 106 110 109 108 107 104 102 101 103 97 99
62 59 66 104 208 223 210 227 220 211 32 60 103 76 62 22 134 131 127 110 97 89 94 102 105 102 102 100 95 91 91 92 89 89 89 96 97 96 98 105 109 110 110 110 108 106 107 106 102
66 88 102 201 232 243 239 251 220 213 121 56 99 103 71 356 80 103 111 106 103 90 88 97 100 100 97 95 96 95 90 91 92 90 85 89 96 96 96 95 101 108 111 113 117 112 110 110 103
70 85 134 213 235 255 271 278 204 203 189 77 97 111 128 16 94 105 109 105 105 101 88 89 94 92 92 90 89 87 87 86 86 90 87 85 87 87 90 94 92 100 112 114 118 124 122 120 109
122 127 180 202 222 247 269 287 168 174 160 164 128 117 146 218 119 112 104 101 94 92 86 78 80 83 82 82 79 78 77 75 76 81 85 83 82 78 77 82 83 88 110 119 119 127 134 133 121
136 129 187 211 204 230 287 356 37 144 152 54 103 137 174 199 145 105 93 90 88 82 83 78 75 73 71 74 72 69 69 68 65 63 70 75 79 73 65 66 72 71 81 101 124 129 148 164 142
104 111 202 210 192 208 323 39 347 358 87 49 47 141 164 143 124 105 91 80 84 79 71 77 77 76 71 71 70 68 62 60 59 58 62 66 68 66 57 51 77 75 76 76 89 109 113 172 190
109 176 215 219 188 178 288 50 314 46 43 52 41 49 103 123 126 123 126 124 116 108 92 81 89 85 78 71 63 66 63 56 50 48 54 63 62 57 54 49 72 80 68 57 38 63 72 40 21
151 191 213 255 277 202 281 301 325 131 241 202 176 152 137 134 133 139 148 150 153 145 130 111 104 93 86 73 66 59 59 55 47 43 43 54 57 47 42 41 32 43 54 37 8 11 11 23 15
174 231 206 241 293 303 257 246 302 211 222 211 178 159 155 158 165 166 162 157 149 130 129 120 115 108 94 86 79 74 68 67 59 43 39 51 53 41 35 37 20 25 25 15 2 358 350 354 325
211 239 253 255 300 281 273 240 221 252 253 183 148 155 170 180 184 176 155 148 137 137 148 154 133 128 116 104 85 83 85 95 77 51 37 52 56 32 21 17 14 8 13 352 326 313 290 285 288
205 219 259 256 262 264 229 267 216 248 221 146 157 181 185 183 182 162 147 150 160 168 172 168 143 130 118 127 149 158 155 154 92 59 18 36 54 39 5 342 341 337 327 302 281 280 272 257 266
83 10 317 261 223 231 168 288 238 232 173 162 183 196 192 184 167 172 175 172 174 176 173 174 162 133 139 157 176 116 167 141 109 342 309 339 10 32 2 278 264 290 303 307 306 295 290 268 253
53 55 277 273 209 210 167 254 258 230 167 196 217 210 193 202 183 186 184 179 174 169 171 183 179 162 184 194 187 158 141 157 232 266 263 274 283 290 317 254 253 282 298 300 257 253 260 264 252
52 223 237 275 232 183 191 248 270 244 174 206 216 203 200 219 228 213 198 187 178 176 175 175 170 187 212 227 221 221 261 258 269 277 266 270 271 261 262 264 275 295 280 255 256 265 245 261 264
213 218 231 238 254 194 233 254 273 273 224 213 202 198 207 217 235 226 208 193 185 178 167 164 166 199 232 258 320 309 296 282 290 277 273 272 272 258 243 254 278 270 239 253 251 251 255 250 254
195 212 253 259 280 232 242 263 269 262 240 222 218 218 222 228 238 226 214 194 173 163 156 175 178 204 164 215 245 244 257 262 272 274 273 276 274 268 243 238 243 248 236 246 241 231 244 252 264
233 256 270 293 323 268 263 272 272 250 219 206 204 210 218 225 262 257 257 218 202 202 199 197 204 207 205 217 234 226 228 242 254 277 294 288 281 272 260 237 231 237 245 248 249 232 225 243 202
246 219 233 258 321 331 319 297 272 276 202 195 207 201 201 203 216 230 251 253 236 221 213 215 218 216 221 221 291 325 329 317 308 293 284 282 280 270 262 250 242 237 235 242 241 231 217 226 234
242 240 220 236 353 288 157 280 270 246 249 231 221 175 188 206 220 221 225 258 252 239 225 218 221 218 218 196 188 219 243 247 257 257 263 276 278 273 267 256 247 240 236 243 247 237 227 218 231
214 291 242 232 173 292 241 219 279 238 241 243 234 225 222 207 182 219 254 250 262 257 226 220 224 227 220 212 209 222 250 254 266 268 273 277 278 277 272 261 252 245 243 241 242 245 238 225 223
158 37 35 47 86 266 227 197 267 228 223 230 235 236 228 198 23 348 331 332 315 299 256 229 233 251 244 232 235 235 248 264 271 274 270 275 278 271 269 264 253 249 244 242 240 238 241 234 232
69 86 28 351 334 252 224 206 248 246 225 205 208 217 210 138 37 354 352 344 332 313 284 250 240 261 263 252 249 251 248 249 253 257 256 262 271 272 266 259 251 250 249 246 242 240 243 239 236
178 148 163 206 238 278 278 233 252 267 240 163 169 181 176 72 336 309 313 322 318 309 300 287 271 271 268 260 258 259 257 251 257 259 255 252 255 261 262 253 252 255 256 256 245 243 244 242 238
143 177 171 146 197 273 267 279 297 213 40 72 100 95 244 308 317 320 323 323 314 309 303 292 289 289 283 273 270 267 264 261 263 266 263 262 262 264 259 255 255 254 254 253 245 243 245 241 241
142 145 106 136 185 263 282 263 243 238 247 264 250 262 289 322 333 331 324 319 313 315 320 319 300 290 288 283 274 279 273 269 265 266 268 269 269 264 258 260 259 256 253 253 247 246 243 242 246
121 121 132 152 178 192 262 269 231 215 210 215 239 248 265 289 304 316 318 321 327 333 330 324 319 309 301 292 284 280 280 279 275 268 268 266 267 262 256 256 260 262 259 253 245 247 247 243 246
180 186 155 167 237 207 214 268 284 227 207 199 255 290 305 300 311 319 322 329 336 332 328 329 324 315 302 295 292 286 288 286 280 275 273 268 264 261 259 256 258 263 264 256 245 253 253 245 242
Height
1502 1502 1503 1505 1508 1518 1518 1511 1504 1501 1500 1499 1499 1498 1500 1505 1509 1516 1514 1513 1514 1516 1517 1519 1520 1520 1521 1521 1522 1522 1523 1523 1523 1523 1523 1524 1524 1524 1524 1524 1524 1525 1525 1525 1525 1525 1525 1525 1525
1501 1502 1505 1505 1513 1522 1517 1508 1503 1500 1499 1499 1499 1500 1502 1505 1507 1510 1511 1513 1514 1515 1517 1518 1519 1520 1521 1521 1522 1522 1522 1523 1523 1523 1523 1523 1523 1524 1524 1524 1524 1524 1525 1525 1525 1525 1525 1525 1525
1501 1502 1505 1508 1515 1517 1510 1503 1500 1498 1498 1498 1500 1502 1504 1507 1508 1509 1510 1512 1514 1515 1516 1517 1519 1520 1520 1521 1521 1522 1522 1522 1522 1523 1523 1523 1523 1523 1523 1524 1524 1524 1524 1524 1524 1525 1525 1525 1525
1501 1503 1505 1511 1512 1508 1503 1500 1499 1498 1498 1498 1499 1503 1506 1508 1509 1509 1510 1512 1513 1514 1516 1517 1518 1519 1520 1520 1521 1521 1521 1522 1522 1522 1522 1523 1523 1523 1523 1523 1523 1524 1524 1524 1524 1524 1524 1524 1524
1500 1502 1508 1513 1509 1504 1500 1498 1498 1498 1498 1499 1500 1503 1506 1509 1509 1509 1510 1512 1513 1514 1515 1517 1518 1518 1519 1520 1520 1520 1521 1521 1521 1522 1522 1522 1522 1522 1522 1522 1522 1523 1523 1523 1523 1523 1524 1524 1524
1500 1502 1512 1513 1507 1501 1499 1498 1498 1498 1499 1499 1500 1503 1507 1509 1509 1510 1511 1512 1513 1514 1515 1516 1517 1518 1518 1519 1519 1519 1520 1520 1520 1521 1521 1521 1521 1521 1521 1521 1521 1522 1522 1522 1522 1523 1523 1523 1523
1500 1504 1508 1507 1504 1502 1499 1497 1498 1498 1498 1500 1500 1503 1506 1508 1508 1509 1511 1512 1513 1514 1514 1515 1516 1517 1517 1518 1518 1518 1518 1519 1519 1519 1519 1520 1520 1520 1520 1520 1520 1520 1520 1521 1521 1522 1522 1522 1522
1498 1503 1505 1504 1503 1501 1498 1497 1497 1497 1498 1500 1500 1501 1504 1506 1507 1509 1510 1511 1512 1513 1514 1514 1515 1516 1516 1516 1517 1517 1517 1517 1518 1518 1518 1518 1518 1518 1518 1518 1518 1519 1519 1519 1520 1520 1520 1521 1521
1498 1505 1506 1502 1500 1499 1497 1497 1498 1498 1498 1499 1499 1500 1502 1504 1505 1507 1508 1510 1511 1512 1513 1513 1514 1514 1515 1515 1515 1516 1516 1516 1516 1516 1516 1516 1516 1516 1516 1517 1517 1517 1517 1517 1518 1518 1519 1519 1520
1497 1504 1501 1498 1497 1497 1497 1497 1498 1498 1498 1499 1500 1500 1501 1503 1504 1505 1506 1507 1508 1509 1511 1512 1512 1513 1513 1514 1514 1514 1514 1514 1514 1514 1514 1514 1514 1514 1515 1515 1515 1515 1515 1516 1516 1516 1517 1517 1518
1496 1499 1497 1497 1496 1496 1496 1497 1498 1498 1499 1498 1498 1499 1500 1502 1503 1503 1505 1506 1507 1508 1509 1510 1511 1511 1512 1512 1512 1512 1512 1512 1512 1512 1512 1512 1512 1512 1512 1512 1513 1513 1513 1513 1514 1514 1514 1515 1515
1496 1496 1495 1495 1496 1496 1497 1497 1497 1497 1497 1497 1498 1498 1499 1500 1501 1502 1503 1505 1506 1507 1507 1508 1509 1509 1510 1510 1510 1510 1510 1510 1510 1510 1510 1510 1510 1510 1510 1510 1510 1510 1511 1511 1511 1512 1512 1512 1513
1495 1495 1495 1495 1495 1496 1496 1496 1496 1495 1495 1496 1497 1498 1499 1500 1501 1502 1503 1503 1504 1505 1506 1507 1507 1507 1508 1508 1508 1508 1508 1508 1508 1508 1508 1508 1507 1507 1507 1508 1508 1508 1508 1508 1509 1509 1509 1509 1510
1494 1494 1495 1494 1494 1495 1495 1495 1495 1493 1494 1494 1495 1496 1497 1498 1499 1500 1501 1502 1503 1503 1504 1505 1505 1505 1505 1506 1505 1505 1505 1505 1505 1505 1505 1505 1505 1505 1505 1505 1505 1505 1505 1505 1506 1506 1506 1507 1507
1494 1495 1495 1494 1493 1494 1495 1495 1493 1491 1493 1493 1494 1495 1496 1497 1497 1498 1499 1500 1501 1501 1502 1503 1503 1503 1503 1503 1503 1503 1503 1503 1503 1502 1502 1502 1502 1502 1502 1502 1502 1502 1503 1503 1503 1503 1503 1503 1504
1495 1498 1499 1494 1492 1492 1497 1497 1491 1490 1491 1492 1492 1493 1494 1495 1495 1496 1497 1498 1499 1499 1500 1500 1501 1501 1501 1501 1501 1500 1500 1500 1500 1499 1499 1499 1499 1499 1499 1499 1499 1499 1500 1500 1500 1500 1500 1500 1500
1499 1502 1499 1495 1492 1492 1495 1494 1490 1489 1490 1490 1491 1491 1492 1493 1493 1494 1495 1496 1496 1497 1497 1497 1498 1498 1498 1498 1498 1498 1497 1497 1497 1496 1496 1496 1495 1496 1496 1496 1496 1496 1496 1497 1497 1497 1497 1496 1496
1500 1501 1498 1496 1492 1493 1494 1493 1490 1489 1489 1489 1489 1489 1490 1490 1491 1492 1493 1493 1494 1494 1494 1495 1495 1495 1495 1495 1495 1495 1494 1494 1494 1493 1493 1492 1492 1492 1492 1492 1492 1493 1493 1493 1493 1493 1493 1493 1493
1496 1497 1498 1495 1492 1493 1493 1491 1488 1487 1487 1488 1488 1488 1488 1488 1489 1490 1490 1490 1491 1491 1491 1492 1492 1492 1492 1491 1491 1491 1490 1490 1490 1490 1489 1489 1488 1488 1488 1489 1489 1489 1489 1489 1490 1490 1490 1490 1490
1496 1498 1498 1496 1493 1493 1493 1491 1487 1485 1485 1485 1485 1485 1485 1486 1486 1487 1487 1488 1488 1488 1488 1489 1489 1488 1488 1488 1488 1488 1487 1487 1487 1487 1486 1486 1485 1485 1485 1485 1485 1485 1485 1486 1486 1486 1486 1486 1487
1496 1498 1498 1498 1495 1493 1494 1492 1487 1484 1483 1484 1484 1483 1483 1484 1483 1484 1484 1485 1485 1485 1485 1486 1486 1486 1485 1485 1485 1485 1484 1484 1484 1483 1483 1483 1482 1482 1481 1481 1481 1481 1482 1481 1482 1482 1482 1482 1483
1497 1495 1495 1496 1500 1502 1498 1501 1488 1485 1484 1482 1482 1481 1481 1481 1481 1481 1482 1482 1482 1482 1483 1483 1483 1483 1483 1482 1482 1481 1480 1480 1480 1479 1479 1479 1479 1478 1478 1477 1478 1477 1477 1477 1478 1478 1479 1479 1479
1495 1494 1495 1496 1501 1504 1501 1503 1491 1485 1483 1481 1481 1480 1480 1480 1479 1479 1479 1479 1479 1480 1480 1480 1480 1480 1479 1479 1478 1478 1477 1477 1477 1476 1476 1475 1475 1475 1474 1474 1473 1473 1473 1473 1474 1474 1475 1475 1475
1494 1496 1498 1502 1505 1507 1499 1501 1491 1485 1480 1479 1479 1478 1478 1478 1478 1478 1478 1478 1477 1477 1477 1477 1476 1476 1476 1476 1475 1475 1474 1473 1473 1472 1472 1472 1471 1471 1470 1470 1469 1469 1469 1469 1469 1470 1470 1470 1471
1497 1503 1511 1510 1514 1506 1496 1496 1488 1479 1477 1477 1477 1477 1477 1477 1476 1476 1476 1475 1474 1474 1474 1473 1473 1473 1473 1472 1472 1471 1471 1470 1469 1469 1468 1467 1467 1466 1466 1466 1466 1465 1465 1465 1465 1465 1465 1466 1466
1497 1501 1509 1510 1510 1504 1497 1493 1483 1476 1475 1475 1475 1476 1476 1476 1476 1475 1474 1473 1472 1472 1471 1470 1470 1469 1469 1468 1468 1468 1467 1466 1466 1465 1464 1463 1463 1462 1462 1462 1462 1461 1461 1461 1461 1460 1460 1461 1461
1496 1501 1500 1508 1512 1510 1498 1490 1480 1476 1475 1475 1475 1475 1475 1475 1474 1473 1472 1471 1470 1469 1468 1467 1467 1466 1465 1465 1464 1463 1463 1462 1461 1461 1460 1459 1459 1458 1458 1458 1457 1457 1457 1456 1456 1455 1456 1456 1456
1496 1498 1505 1508 1508 1505 1497 1490 1484 1478 1477 1476 1475 1474 1474 1474 1473 1472 1470 1469 1468 1467 1466 1465 1464 1462 1461 1461 1460 1459 1458 1457 1457 1456 1455 1454 1454 1454 1453 1453 1453 1452 1452 1452 1451 1451 1451 1451 1451
1498 1501 1503 1507 1507 1506 1501 1490 1476 1474 1474 1475 1474 1473 1473 1472 1471 1470 1469 1468 1467 1465 1464 1462 1461 1459 1458 1457 1456 1455 1454 1453 1452 1451 1450 1450 1449 1449 1448 1448 1448 1447 1447 1447 1447 1446 1446 1446 1446
1498 1499 1503 1506 1507 1508 1506 1492 1472 1472 1471 1472 1473 1472 1472 1471 1470 1469 1467 1466 1464 1462 1461 1459 1457 1456 1454 1453 1451 1450 1449 1448 1447 1446 1446 1445 1444 1444 1444 1443 1443 1443 1442 1442 1442 1441 1441 1441 1441